timestamp,wind_dir_avg,wind_spd_max_dir,wind_spd_avg,wind_spd_gust,battery_voltage,lat,long
2019-02-28 00:00:00+00:00,295.0,290.0,11.85,16.66,,47.59359,-54.27349
2019-02-28 00:10:00+00:00,290.0,289.0,11.56,14.83,,47.59359,-54.27349
2019-02-28 00:20:00+00:00,308.0,314.0,13.27,17.42,,47.59359,-54.27349
2019-02-28 00:30:00+00:00,296.0,291.0,12.19,17.51,,47.59359,-54.27349
2019-02-28 00:40:00+00:00,293.0,286.0,14.54,17.56,,47.59359,-54.27349
2019-02-28 00:50:00+00:00,285.0,285.0,14.71,18.16,,47.59359,-54.27349
2019-02-28 01:00:00+00:00,293.0,289.0,10.59,14.61,,47.59359,-54.27349
2019-02-28 01:10:00+00:00,300.0,288.0,9.78,13.72,,47.59359,-54.27349
2019-02-28 01:20:00+00:00,300.0,300.0,13.49,16.98,,47.59359,-54.27349
2019-02-28 01:30:00+00:00,288.0,287.0,11.81,17.2,,47.59359,-54.27349
2019-02-28 01:40:00+00:00,298.0,286.0,8.97,13.74,,47.59359,-54.27349
2019-02-28 01:50:00+00:00,295.0,292.0,8.97,13.66,,47.59359,-54.27349
2019-02-28 02:00:00+00:00,284.0,275.0,9.66,16.26,,47.59359,-54.27349
2019-02-28 02:10:00+00:00,281.0,274.0,11.86,15.21,,47.59359,-54.27349
2019-02-28 02:20:00+00:00,290.0,290.0,15.39,17.17,,47.59359,-54.27349
2019-02-28 02:30:00+00:00,289.0,292.0,9.24,15.36,,47.59359,-54.27349
2019-02-28 02:40:00+00:00,280.0,280.0,8.2,9.82,,47.59359,-54.27349
2019-02-28 02:50:00+00:00,272.0,272.0,11.11,15.13,,47.59359,-54.27349
2019-02-28 03:00:00+00:00,275.0,274.0,8.86,13.5,,47.59359,-54.27349
2019-02-28 03:10:00+00:00,279.0,259.0,8.9,10.91,,47.59359,-54.27349
2019-02-28 03:20:00+00:00,284.0,278.0,9.63,14.78,,47.59359,-54.27349
2019-02-28 03:30:00+00:00,276.0,279.0,9.65,14.52,,47.59359,-54.27349
2019-02-28 03:40:00+00:00,283.0,268.0,9.25,11.04,,47.59359,-54.27349
2019-02-28 03:50:00+00:00,280.0,279.0,9.9,14.26,,47.59359,-54.27349
2019-02-28 04:00:00+00:00,293.0,288.0,9.8,14.14,,47.59359,-54.27349
2019-02-28 04:10:00+00:00,290.0,290.0,12.98,15.77,,47.59359,-54.27349
2019-02-28 04:20:00+00:00,290.0,287.0,11.38,14.66,,47.59359,-54.27349
2019-02-28 04:30:00+00:00,290.0,289.0,10.67,15.42,,47.59359,-54.27349
2019-02-28 04:40:00+00:00,291.0,289.0,16.1,17.97,,47.59359,-54.27349
2019-02-28 04:50:00+00:00,291.0,286.0,14.31,17.85,,47.59359,-54.27349
2019-02-28 05:00:00+00:00,301.0,299.0,13.73,17.44,,47.59359,-54.27349
2019-02-28 05:10:00+00:00,309.0,300.0,11.3,15.03,,47.59359,-54.27349
2019-02-28 05:20:00+00:00,299.0,299.0,13.57,17.52,,47.59359,-54.27349
2019-02-28 05:30:00+00:00,307.0,303.0,11.12,13.86,,47.59359,-54.27349
2019-02-28 05:40:00+00:00,299.0,300.0,13.66,16.65,,47.59359,-54.27349
2019-02-28 05:50:00+00:00,298.0,300.0,13.96,17.58,,47.59359,-54.27349
2019-02-28 06:00:00+00:00,302.0,305.0,15.94,20.9,,47.59359,-54.27349
2019-02-28 06:10:00+00:00,298.0,289.0,14.02,17.86,,47.59359,-54.27349
2019-02-28 06:20:00+00:00,295.0,282.0,11.48,15.27,,47.59359,-54.27349
2019-02-28 06:30:00+00:00,300.0,297.0,12.84,17.15,,47.59359,-54.27349
2019-02-28 06:40:00+00:00,304.0,308.0,13.95,17.75,,47.59359,-54.27349
2019-02-28 06:50:00+00:00,302.0,291.0,11.02,14.5,,47.59359,-54.27349
2019-02-28 07:00:00+00:00,292.0,298.0,14.6,17.51,,47.59359,-54.27349
2019-02-28 07:10:00+00:00,293.0,303.0,13.65,16.4,,47.59359,-54.27349
2019-02-28 07:20:00+00:00,295.0,286.0,11.25,13.76,,47.59359,-54.27349
2019-02-28 07:30:00+00:00,289.0,297.0,14.83,17.7,,47.59359,-54.27349
2019-02-28 07:40:00+00:00,303.0,298.0,12.46,18.55,,47.59359,-54.27349
2019-02-28 07:50:00+00:00,296.0,291.0,11.55,15.63,,47.59359,-54.27349
2019-02-28 08:00:00+00:00,299.0,295.0,13.49,16.99,,47.59359,-54.27349
2019-02-28 08:10:00+00:00,291.0,290.0,11.35,16.41,,47.59359,-54.27349
2019-02-28 08:20:00+00:00,290.0,290.0,9.43,13.78,,47.59359,-54.27349
2019-02-28 08:30:00+00:00,287.0,287.0,13.44,17.1,,47.59359,-54.27349
2019-02-28 08:40:00+00:00,289.0,285.0,12.59,15.37,,47.59359,-54.27349
2019-02-28 08:50:00+00:00,292.0,288.0,14.22,17.99,,47.59359,-54.27349
2019-02-28 09:00:00+00:00,300.0,307.0,11.99,14.79,,47.59359,-54.27349
2019-02-28 09:10:00+00:00,294.0,294.0,11.03,14.57,,47.59359,-54.27349
2019-02-28 09:20:00+00:00,289.0,292.0,11.07,14.35,,47.59359,-54.27349
2019-02-28 09:30:00+00:00,291.0,298.0,11.66,15.73,,47.59359,-54.27349
2019-02-28 09:40:00+00:00,286.0,286.0,15.88,17.95,,47.59359,-54.27349
2019-02-28 09:50:00+00:00,282.0,287.0,14.67,16.63,,47.59359,-54.27349
2019-02-28 10:00:00+00:00,291.0,289.0,9.77,13.81,,47.59359,-54.27349
2019-02-28 10:10:00+00:00,285.0,287.0,13.44,15.34,,47.59359,-54.27349
2019-02-28 10:20:00+00:00,276.0,279.0,13.95,15.69,,47.59359,-54.27349
2019-02-28 10:30:00+00:00,278.0,279.0,13.46,16.0,,47.59359,-54.27349
2019-02-28 10:40:00+00:00,285.0,294.0,13.71,17.14,,47.59359,-54.27349
2019-02-28 10:50:00+00:00,297.0,298.0,13.17,17.41,,47.59359,-54.27349
2019-02-28 11:00:00+00:00,291.0,293.0,13.68,17.7,,47.59359,-54.27349
2019-02-28 11:10:00+00:00,294.0,298.0,12.73,15.77,,47.59359,-54.27349
2019-02-28 11:20:00+00:00,288.0,292.0,15.03,19.04,,47.59359,-54.27349
2019-02-28 11:30:00+00:00,287.0,282.0,13.08,15.8,,47.59359,-54.27349
2019-02-28 11:40:00+00:00,289.0,289.0,11.81,13.72,,47.59359,-54.27349
2019-02-28 11:50:00+00:00,281.0,279.0,9.8,11.23,,47.59359,-54.27349
2019-02-28 12:00:00+00:00,284.0,284.0,12.76,14.38,,47.59359,-54.27349
2019-02-28 12:10:00+00:00,282.0,278.0,11.66,13.14,,47.59359,-54.27349
2019-02-28 12:20:00+00:00,272.0,280.0,14.27,15.91,,47.59359,-54.27349
2019-02-28 12:30:00+00:00,277.0,270.0,13.53,16.01,,47.59359,-54.27349
2019-02-28 12:40:00+00:00,283.0,287.0,14.47,16.44,,47.59359,-54.27349
2019-02-28 12:50:00+00:00,285.0,285.0,17.27,19.9,,47.59359,-54.27349
2019-02-28 13:00:00+00:00,276.0,274.0,14.87,17.24,,47.59359,-54.27349
2019-02-28 13:10:00+00:00,281.0,278.0,13.43,16.31,,47.59359,-54.27349
2019-02-28 13:20:00+00:00,282.0,292.0,14.97,18.74,,47.59359,-54.27349
2019-02-28 13:30:00+00:00,279.0,282.0,14.27,17.39,,47.59359,-54.27349
2019-02-28 13:40:00+00:00,282.0,277.0,17.1,21.37,,47.59359,-54.27349
2019-02-28 13:50:00+00:00,286.0,285.0,14.96,18.35,,47.59359,-54.27349
2019-02-28 14:00:00+00:00,286.0,288.0,15.37,18.56,,47.59359,-54.27349
2019-02-28 14:10:00+00:00,274.0,275.0,13.54,15.12,,47.59359,-54.27349
2019-02-28 14:20:00+00:00,276.0,276.0,16.71,19.7,,47.59359,-54.27349
2019-02-28 14:30:00+00:00,273.0,278.0,16.25,21.18,,47.59359,-54.27349
2019-02-28 14:40:00+00:00,268.0,276.0,15.83,19.11,,47.59359,-54.27349
2019-02-28 14:50:00+00:00,278.0,279.0,14.03,16.22,,47.59359,-54.27349
2019-02-28 15:00:00+00:00,269.0,264.0,16.77,19.07,,47.59359,-54.27349
2019-02-28 15:10:00+00:00,273.0,277.0,15.22,17.05,,47.59359,-54.27349
2019-02-28 15:20:00+00:00,269.0,270.0,17.62,19.75,,47.59359,-54.27349
2019-02-28 15:30:00+00:00,274.0,272.0,14.21,18.98,,47.59359,-54.27349
2019-02-28 15:40:00+00:00,275.0,271.0,15.82,17.31,,47.59359,-54.27349
2019-02-28 15:50:00+00:00,273.0,275.0,18.02,21.16,,47.59359,-54.27349
2019-02-28 16:00:00+00:00,286.0,289.0,16.5,20.92,,47.59359,-54.27349
2019-02-28 16:10:00+00:00,273.0,263.0,15.45,17.87,,47.59359,-54.27349
2019-02-28 16:20:00+00:00,280.0,279.0,16.05,18.23,,47.59359,-54.27349
2019-02-28 16:30:00+00:00,284.0,287.0,18.55,21.5,,47.59359,-54.27349
2019-02-28 16:40:00+00:00,274.0,274.0,17.01,20.6,,47.59359,-54.27349
2019-02-28 16:50:00+00:00,273.0,270.0,16.53,18.49,,47.59359,-54.27349
2019-02-28 17:00:00+00:00,278.0,286.0,17.55,21.51,,47.59359,-54.27349
2019-02-28 17:10:00+00:00,269.0,269.0,15.46,18.97,,47.59359,-54.27349
2019-02-28 17:20:00+00:00,276.0,275.0,16.54,19.29,,47.59359,-54.27349
2019-02-28 17:30:00+00:00,280.0,282.0,15.6,17.98,,47.59359,-54.27349
2019-02-28 17:40:00+00:00,279.0,278.0,15.06,18.01,,47.59359,-54.27349
2019-02-28 17:50:00+00:00,281.0,297.0,12.74,15.79,,47.59359,-54.27349
2019-02-28 18:00:00+00:00,275.0,274.0,14.86,17.39,,47.59359,-54.27349
2019-02-28 18:10:00+00:00,273.0,270.0,14.19,17.09,,47.59359,-54.27349
2019-02-28 18:20:00+00:00,273.0,276.0,12.48,14.31,,47.59359,-54.27349
2019-02-28 18:30:00+00:00,274.0,274.0,11.61,14.72,,47.59359,-54.27349
2019-02-28 18:40:00+00:00,276.0,282.0,15.58,17.53,,47.59359,-54.27349
2019-02-28 18:50:00+00:00,268.0,277.0,12.32,14.92,,47.59359,-54.27349
2019-02-28 19:00:00+00:00,274.0,276.0,13.02,15.4,,47.59359,-54.27349
2019-02-28 19:10:00+00:00,268.0,275.0,14.75,17.27,,47.59359,-54.27349
2019-02-28 19:20:00+00:00,270.0,266.0,13.96,17.3,,47.59359,-54.27349
2019-02-28 19:30:00+00:00,261.0,265.0,12.41,14.88,,47.59359,-54.27349
2019-02-28 19:40:00+00:00,269.0,269.0,13.0,14.6,,47.59359,-54.27349
2019-02-28 19:50:00+00:00,258.0,261.0,13.07,16.64,,47.59359,-54.27349
2019-02-28 20:00:00+00:00,268.0,262.0,13.47,15.62,,47.59359,-54.27349
2019-02-28 20:10:00+00:00,269.0,270.0,14.21,16.74,,47.59359,-54.27349
2019-02-28 20:20:00+00:00,268.0,265.0,13.73,15.5,,47.59359,-54.27349
2019-02-28 20:30:00+00:00,276.0,276.0,12.72,15.24,,47.59359,-54.27349
2019-02-28 20:40:00+00:00,274.0,278.0,10.71,14.76,,47.59359,-54.27349
2019-02-28 20:50:00+00:00,263.0,262.0,12.45,14.92,,47.59359,-54.27349
2019-02-28 21:00:00+00:00,278.0,275.0,15.67,17.22,,47.59359,-54.27349
2019-02-28 21:10:00+00:00,277.0,277.0,14.66,16.91,,47.59359,-54.27349
2019-02-28 21:20:00+00:00,267.0,265.0,7.69,11.03,,47.59359,-54.27349
2019-02-28 21:30:00+00:00,270.0,272.0,14.23,16.54,,47.59359,-54.27349
2019-02-28 21:40:00+00:00,269.0,270.0,15.09,16.96,,47.59359,-54.27349
2019-02-28 21:50:00+00:00,264.0,269.0,12.87,15.58,,47.59359,-54.27349
2019-02-28 22:00:00+00:00,270.0,274.0,13.61,15.86,,47.59359,-54.27349
2019-02-28 22:10:00+00:00,278.0,282.0,9.52,14.44,,47.59359,-54.27349
2019-02-28 22:20:00+00:00,280.0,289.0,12.68,16.05,,47.59359,-54.27349
2019-02-28 22:30:00+00:00,291.0,290.0,9.53,14.8,,47.59359,-54.27349
2019-02-28 22:40:00+00:00,287.0,288.0,10.21,14.73,,47.59359,-54.27349
2019-02-28 22:50:00+00:00,299.0,310.0,8.03,10.63,,47.59359,-54.27349
2019-02-28 23:00:00+00:00,308.0,306.0,8.87,10.6,,47.59359,-54.27349
2019-02-28 23:10:00+00:00,307.0,313.0,8.87,11.72,,47.59359,-54.27349
2019-02-28 23:20:00+00:00,309.0,307.0,8.35,10.31,,47.59359,-54.27349
2019-02-28 23:30:00+00:00,303.0,297.0,7.69,9.37,,47.59359,-54.27349
2019-02-28 23:40:00+00:00,300.0,300.0,7.88,9.27,,47.59359,-54.27349
2019-02-28 23:50:00+00:00,301.0,303.0,7.35,8.92,,47.59359,-54.27349
